Regional Weather Roundup
Issued by NWS

Home | Current Version | Previous Version | Graphics & Text | Print | Product List | Glossary On
Versions: 1 2 3 4 5 6 7 8 9 10 11 12 13 14 15 16 17 18 19 20 21 22 23 24 25 26 27 28 29 30 31 32 33 34 35 36 37 38 39 40 41 42 43 44 45 46 47 48 49 50
000
ASUS43 KTOP 280908
RWRKS

WEATHER ROUNDUP FOR KANSAS
NATIONAL WEATHER SERVICE GOODLAND KS
300 AM CST SAT FEB 28 2015

NOTE:  "FAIR" INDICATES FEW OR NO CLOUDS BELOW 12,000 FEET WITH NO
SIGNIFICANT WEATHER AND/OR OBSTRUCTIONS TO VISIBILITY.

KSZ001>006-013>018-027>032-041>047-281000-
NORTHWEST KANSAS

CITY           SKY/WX    TMP DP  RH WIND       PRES   REMARKS
GOODLAND       LGT SNOW  11   8  88 S15       30.10F FOG     WCI  -5
HAYS           CLOUDY    12   1  62 SE8       30.33F
HILL CITY      FLURRIES  14   7  73 S10       30.30F WCI   1
RUSSELL        CLOUDY    11   8  88 SE7       30.34F
$$

KSZ061>065-074>080-084>089-281000-
SOUTHWEST KANSAS

CITY           SKY/WX    TMP DP  RH WIND       PRES   REMARKS
DODGE CITY     LGT SNOW  11   7  84 S15       30.28S FOG     WCI  -5
ELKHART          N/A     13   6  74 S16         N/A  WCI  -3
GARDEN CITY    LGT SNOW   9   7  92 SE14      30.22F VSB 1   WCI  -7
GREAT BEND     CLOUDY    14   7  73 SE9       30.36S
LIBERAL        MOCLDY    14   7  73 SE12      30.22F WCI   0
PRATT          FLURRIES  14  10  85 S9        30.36S
$$

KSZ066>073-081>083-090>101-281000-
SOUTHEAST KANSAS

CITY           SKY/WX    TMP DP  RH WIND       PRES   REMARKS
CHANUTE        CLOUDY    18  10  71 E5        30.49F
COFFEYVILLE    CLOUDY    20  14  77 E7        30.51S
HUTCHINSON     CLOUDY    16  10  77 SE8       30.40F
MEDICINE LODGE   N/A     14  11  87 SE8       30.40S
NEWTON         CLOUDY    14   7  73 SE9       30.42F
PARSONS        CLOUDY    19  14  81 VRB3      30.50F
WICHITA INTL   CLOUDY    16  11  80 E9        30.42F
WICHITA JABRA  FLURRIES  15  10  80 SE6       30.43F
WICHITA MCCONL CLOUDY    15  11  83 E5        30.42F
WINFIELD       CLOUDY    17  12  80 SE10      30.45F WCI   5
$$

KSZ007>012-019>026-033>040-048>060-102>105-281000-
NORTHEAST KANSAS

CITY           SKY/WX    TMP DP  RH WIND       PRES   REMARKS
CONCORDIA      CLEAR      9   7  92 S7        30.42F
EMPORIA        CLOUDY    16   9  74 SE8       30.46F
LAWRENCE       CLOUDY    13   7  77 E3        30.53S
MANHATTAN      CLEAR     10   7  87 CALM      30.48F
MARYSVILLE     CLEAR     10   3  72 SE3       30.46F
OLATHE IND     CLOUDY    16   7  67 E5        30.51S
OLATHE EXE     CLOUDY    17   7  64 E7        30.50S
SALINA         CLOUDY    13   8  81 SE6       30.44F
TOPEKA BILLARD CLEAR     13   4  67 CALM      30.52F
TOPEKA FORBES  CLOUDY    13   5  70 CALM      30.49F
$$


USA.gov is the U.S. government's official web portal to all federal, state and local government web resources and services.